Tracking 18984 objects as of 24-Feb-2018
HD Live streaming from Space Station
objects crossing your sky now

METEOR 2-5

Track METEOR 2-5 now!
10-day predictions
METEOR 2-5 is classified as:


NORAD ID: 11605
Int'l Code: 1979-095A
Perigee: 868.0 km
Apogee: 885.2 km
Inclination: 81.2 °
Period: 102.3 minutes
Semi major axis: 7247 km
RCS: 4.8636 m2 (large)
Launch date: October 31, 1979
Source: Commonwealth of Independent States (former USSR) (CIS)
Launch site: PLESETSK MISSILE AND SPACE COMPLEX (PKMTR)
aabbcc
Your satellite tracking list
Your tracking list is empty




NASA's NSSDC Master Catalog

Two Line Element Set (TLE):
1 11605U 79095A   18054.65729950  .00000124  00000-0  66788-4 0  9990
2 11605  81.2114 303.2853 0011836 160.1539 200.0092 14.07063194966627
Source of the keplerian elements: AFSPC